Location: Im Fang
(46.6019°N, 7.2397°E)
Time: 11:06:48
(UTC+00:00)

Cosmos 1140 Rocket - Pass Details

Date: 08 December 2019
Orbit: 744 x 768 km, 74.1° (Epoch: 25 January)

Event Time Altitude Azimuth Distance (km) Brightness Sun altitude
Exits shadow 04:32:43 53° 342° (NNW) 936 3.7 -24.7°
Maximum altitude 04:34:00 88° 70° (ENE) 767 3.4 -24.4°
Drops below altitude 10° 04:39:13 10° 159° (SSE) 2,292 6.3 -23.6°
Sets 04:41:35 0° 160° (SSE) 3,216 7.1 -23.2°
